Theta_e
301 301 301 300 300 299 299 298 297 296 296 296 296 296 296 297 297 297 297 298 298 298 298 298 299 299 299 299 299 299 299 299 299 299 299 299 299 299 299 299 299 299 299 299 299 299 299 299 299 299 299 299 299 299 299 299 299 299 299 299 299 298 298 298 298 298 298 298 298 298 298 298 298 297 297 297 297 297 298 298 299 299 300 301 302 303
301 301 300 300 299 299 299 297 296 296 295 295 295 295 295 295 295 295 295 295 295 296 296 296 296 297 297 297 297 297 297 297 297 297 297 297 297 298 298 298 298 298 298 298 298 298 298 298 298 298 298 298 298 298 298 298 297 297 297 297 296 296 296 296 296 296 296 296 296 296 296 296 295 295 295 295 295 296 296 296 297 297 298 299 300 302
301 301 300 299 298 298 298 297 296 296 295 295 295 294 294 294 294 294 294 294 293 293 293 293 293 294 294 294 294 294 294 294 294 294 294 295 295 295 295 295 296 296 296 296 296 296 296 296 296 296 296 296 296 296 295 295 295 295 295 295 294 294 294 294 294 294 294 294 294 294 294 294 293 293 293 293 294 294 294 294 295 295 296 298 299 301
301 301 301 300 298 296 296 296 296 296 295 295 295 294 294 294 294 294 293 293 293 292 292 292 292 292 292 292 292 292 292 292 292 292 292 292 292 292 292 292 292 293 293 293 293 293 293 293 293 293 293 293 293 293 293 293 293 293 293 293 293 293 292 292 292 292 292 292 292 292 292 292 292 292 292 292 292 292 293 293 294 294 295 297 299 299
301 301 301 299 297 295 294 295 295 295 294 294 294 294 294 294 294 294 293 293 292 292 292 293 293 293 292 292 292 291 291 291 291 291 291 291 291 291 291 291 291 291 291 291 291 291 291 291 291 292 292 292 292 292 292 292 292 292 292 292 291 291 291 291 291 291 291 291 291 291 291 291 291 291 291 292 292 292 293 293 293 294 295 297 298 299
300 300 299 298 296 295 295 296 295 295 295 294 294 294 294 294 293 293 293 292 292 292 293 293 294 294 294 294 293 293 292 292 292 292 292 292 292 292 291 291 291 291 291 291 290 291 291 291 291 291 291 291 291 291 291 291 291 291 291 291 291 291 291 291 291 291 291 291 291 291 291 292 292 292 292 292 293 293 293 293 293 294 295 297 297 298
299 299 298 297 296 295 296 296 297 297 297 296 296 295 295 294 294 293 293 293 293 293 293 294 295 295 295 294 294 293 293 293 293 293 293 293 293 293 292 292 292 291 291 291 291 291 291 291 291 291 291 291 291 291 291 291 291 291 291 291 291 291 291 291 291 291 291 291 292 292 292 292 293 293 293 293 293 294 294 294 294 294 295 296 296 297
298 297 296 295 295 294 294 295 296 297 297 297 297 297 296 295 295 294 294 294 294 293 294 294 295 295 295 295 294 294 293 293 293 293 293 293 293 293 293 293 292 292 292 292 292 292 292 292 292 292 292 292 292 292 292 292 292 292 292 292 292 292 292 292 291 292 292 292 292 292 293 293 293 294 294 294 294 294 294 294 295 295 296 296 296 297
297 297 296 295 294 293 292 292 293 295 296 296 296 296 296 295 294 294 294 294 294 294 294 294 294 295 295 294 294 294 294 293 293 293 293 293 293 293 293 293 293 293 293 293 293 293 293 293 293 293 292 292 292 292 292 292 292 292 292 292 292 292 292 292 292 292 292 292 292 293 293 293 294 294 294 294 294 294 294 294 295 295 296 296 296 296
297 297 297 297 296 294 292 292 292 293 294 295 295 295 294 293 293 293 293 294 294 294 294 294 294 294 294 293 294 294 294 294 294 294 294 294 294 294 294 294 294 293 293 293 293 293 293 293 293 293 293 292 292 292 292 292 292 292 293 292 292 292 292 292 292 292 292 292 292 293 293 293 293 293 293 294 294 294 294 294 294 295 295 296 296 296
296 296 297 297 296 295 293 294 294 294 294 295 295 294 293 292 291 291 292 293 294 294 294 294 293 293 293 293 293 294 294 294 294 294 294 294 294 294 294 294 294 293 293 293 293 293 293 293 293 293 293 292 292 292 292 292 292 293 293 292 292 292 292 292 292 292 292 292 292 292 292 292 293 293 293 293 293 294 294 294 294 295 294 295 295 295
296 296 295 295 294 294 295 295 295 295 295 296 295 295 294 292 291 291 292 293 294 294 294 293 293 292 293 293 293 294 294 294 295 294 294 294 293 293 293 293 293 293 293 293 293 293 293 293 293 293 293 293 292 292 292 293 293 293 293 292 292 292 292 292 292 292 292 292 292 292 292 293 293 293 293 293 294 294 294 294 294 294 294 294 295 295
296 296 296 295 295 295 296 296 296 296 295 295 294 294 293 292 292 292 293 294 294 294 294 293 292 292 293 293 294 294 295 295 295 295 294 293 293 293 293 293 293 293 293 293 293 293 293 293 293 293 293 293 293 293 293 293 293 293 293 293 293 292 292 292 292 292 292 292 292 293 293 293 293 294 294 294 294 294 294 294 294 294 294 294 295 295
296 296 296 296 296 296 295 295 294 294 294 294 294 293 293 293 293 293 294 294 294 293 293 293 292 293 293 293 294 294 295 295 295 295 294 293 293 293 293 293 293 293 293 293 293 293 293 293 293 293 293 293 293 293 293 293 293 293 293 293 293 293 293 293 293 293 293 293 293 293 293 294 294 294 294 294 294 294 294 294 294 294 294 294 294 295
295 295 295 295 295 294 294 294 294 294 294 294 293 293 293 293 293 293 293 293 293 293 293 293 293 293 293 294 294 294 294 294 294 294 293 293 293 293 293 293 293 293 293 293 293 293 293 293 293 293 293 293 293 293 293 293 293 293 293 293 293 293 293 293 293 293 293 293 293 294 294 294 294 294 294 294 294 294 294 294 294 294 294 295 295 295
295 295 294 294 294 294 293 293 293 293 294 293 293 293 293 293 293 293 293 293 293 293 293 293 293 293 293 294 294 294 294 294 294 294 294 293 293 293 293 293 293 293 293 293 293 293 293 293 293 293 294 294 294 294 293 293 293 293 293 293 293 293 293 293 293 293 293 293 293 294 294 294 294 294 294 294 294 294 294 294 294 294 295 295 295 295
294 294 294 294 294 294 293 293 293 293 293 293 293 293 293 293 293 293 293 293 293 293 293 293 293 292 293 293 293 294 294 294 294 294 294 294 293 293 293 293 293 293 293 293 293 293 293 294 294 294 294 294 294 294 294 294 293 293 293 293 293 293 293 293 293 293 293 293 293 293 293 293 293 293 293 293 294 294 294 294 294 295 295 295 295 295
294 294 294 293 293 293 293 293 293 293 293 293 293 293 293 293 293 293 293 293 293 293 293 293 293 293 292 293 293 293 293 293 293 293 293 293 293 293 293 293 293 293 293 293 293 293 293 293 294 294 294 294 294 294 294 294 293 293 293 293 293 293 293 293 293 292 292 292 292 292 292 293 293 293 293 293 294 294 294 294 295 295 295 295 295 295
294 294 294 293 293 293 293 293 293 293 293 293 293 292 292 292 292 292 292 293 293 293 293 293 293 293 293 293 293 293 293 293 293 293 293 293 293 292 292 293 293 293 293 293 293 293 293 293 293 293 293 293 293 293 293 293 293 293 293 293 293 293 292 292 292 292 291 291 292 292 292 292 293 293 293 293 294 294 294 294 294 294 294 295 295 295
294 294 293 293 293 293 293 293 293 293 293 293 292 292 291 291 292 292 292 292 292 292 293 293 293 293 293 293 293 293 293 293 293 293 293 292 292 292 292 293 293 293 293 293 293 293 293 293 292 292 292 292 292 292 292 292 292 292 292 292 292 292 292 292 291 291 291 291 291 292 292 292 292 293 293 293 293 294 294 294 294 294 294 294 294 294
293 294 294 293 293 293 293 292 292 293 293 292 291 291 291 291 292 292 292 292 292 292 292 293 293 293 293 293 293 293 292 293 293 293 293 293 293 293 293 293 292 292 292 292 292 292 292 292 292 291 291 291 291 291 291 291 291 291 291 292 292 292 292 291 291 291 291 291 292 292 292 292 292 292 293 293 293 293 293 294 294 294 294 294 294 293
293 293 293 293 293 293 293 293 292 292 292 292 291 291 291 292 292 292 292 292 292 292 292 292 292 292 292 292 292 292 292 293 293 293 293 293 293 293 292 292 292 292 292 292 292 291 291 291 291 291 291 291 291 291 291 291 291 291 291 291 291 291 292 292 292 292 292 292 292 292 292 292 292 292 292 293 293 293 293 293 293 293 293 293 293 293
293 293 293 293 293 293 293 292 292 292 292 291 291 291 292 292 292 292 292 292 292 292 292 292 293 293 293 293 293 293 293 293 293 293 293 293 293 292 292 292 291 291 291 291 291 291 291 291 291 291 291 291 291 291 291 291 291 291 291 291 291 291 291 291 291 291 292 292 292 292 292 292 292 292 292 292 293 293 293 293 293 293 293 292 292 292
293 292 292 293 293 293 292 292 292 292 292 292 292 292 292 293 293 293 293 293 293 293 293 293 293 293 293 293 293 293 292 292 292 292 293 293 292 292 291 291 291 290 290 290 290 290 290 290 290 290 291 290 290 290 291 291 291 291 291 291 291 291 291 291 291 291 291 291 291 291 291 291 291 292 292 292 293 293 293 293 293 293 293 292 292 292
293 293 293 293 293 293 292 292 292 292 292 292 292 292 292 293 293 293 293 293 293 293 293 293 293 293 292 292 292 292 292 291 291 291 292 291 291 291 290 290 290 290 290 290 290 290 290 290 290 290 290 290 290 290 290 290 290 290 290 291 291 291 291 291 291 291 291 291 291 291 290 290 291 291 292 293 293 293 293 293 293 293 293 293 293 293
292 292 292 292 292 292 292 292 292 292 291 291 291 291 291 291 291 292 292 292 292 292 292 292 291 292 292 291 291 291 291 291 291 290 290 290 290 290 290 289 289 289 289 290 290 290 290 290 289 289 289 289 289 290 290 290 290 290 290 290 290 290 290 290 290 290 290 290 290 290 290 290 291 291 292 292 293 292 292 292 292 293 293 293 293 293
289 289 289 290 290 290 290 290 290 289 289 289 289 289 290 290 290 291 291 291 291 291 291 291 290 290 291 291 291 290 290 290 290 290 290 290 289 289 289 289 289 289 289 289 289 289 289 289 289 289 289 289 289 289 290 290 290 290 290 290 290 290 289 289 289 289 289 289 289 289 290 290 291 292 292 292 292 292 292 292 292 293 293 293 292 292
290 290 290 289 289 289 289 289 289 289 288 289 289 290 291 291 291 291 291 291 291 291 290 290 289 289 289 290 290 290 290 290 290 289 289 289 289 289 289 289 289 289 289 289 289 288 288 288 289 289 289 289 289 289 289 289 289 289 289 289 289 289 289 289 289 289 288 289 289 290 290 291 291 291 291 291 292 292 292 292 292 292 292 292 292 292
291 291 292 291 291 291 291 291 291 291 290 291 291 291 291 291 291 291 291 290 290 290 290 290 290 289 289 290 290 289 289 289 289 289 289 289 289 289 289 289 289 289 288 288 288 288 288 288 289 289 289 289 289 289 289 289 289 289 289 289 288 288 288 288 288 288 288 289 289 290 290 290 290 291 291 291 291 292 292 292 292 292 291 291 291 291
291 291 291 291 291 291 291 291 291 291 291 291 291 291 291 291 291 290 290 290 290 290 290 290 290 290 289 289 289 288 288 289 289 288 288 288 288 288 288 288 288 288 288 288 288 288 288 288 288 288 289 288 288 288 288 288 288 288 288 288 287 287 287 287 288 288 288 288 289 289 289 290 290 290 291 291 291 291 291 291 291 291 291 291 291 291
291 291 291 291 290 290 290 290 290 290 290 290 290 290 290 290 290 290 290 290 290 290 290 289 289 289 289 288 288 287 286 288 289 288 288 288 288 288 288 288 288 288 288 288 287 287 287 288 288 288 288 288 288 287 287 287 287 287 287 287 287 287 287 287 288 288 288 288 288 289 289 290 290 290 290 290 290 290 290 290 290 290 290 290 290 290
290 290 290 290 290 290 290 290 290 290 290 290 290 290 289 289 289 289 289 289 289 289 289 289 289 289 288 288 287 287 287 288 288 288 288 288 288 288 288 288 288 288 288 288 287 287 286 287 287 287 287 287 287 287 287 287 287 287 287 287 287 287 287 287 288 288 288 288 288 289 289 289 289 289 289 289 289 289 289 289 289 290 290 290 290 291
289 289 290 289 289 289 289 289 289 289 289 289 289 289 289 289 289 289 289 289 289 289 289 289 288 288 288 288 288 288 288 288 288 288 288 288 288 288 288 288 288 287 287 287 287 287 286 286 287 287 286 286 286 286 286 286 286 287 287 287 287 287 287 287 287 288 288 288 288 288 288 288 288 288 288 288 288 289 289 289 289 290 290 290 291 291
289 289 289 289 289 289 288 288 288 288 288 288 288 289 289 289 289 289 289 288 288 288 288 288 288 288 288 288 288 288 288 288 288 288 287 287 287 287 287 287 287 287 287 287 287 287 287 286 286 286 286 286 286 286 286 286 286 286 287 287 287 287 287 287 287 288 288 288 288 288 288 288 288 288 288 288 288 288 289 289 289 290 290 290 291 291
288 288 288 288 288 288 288 288 288 288 288 288 288 288 288 288 288 288 288 288 288 288 288 288 288 288 288 288 287 287 287 287 287 287 287 287 287 287 287 287 287 287 287 287 286 286 286 286 286 286 286 286 286 286 286 286 286 286 287 287 287 287 287 287 287 287 287 287 287 287 287 287 287 287 288 288 288 288 289 289 289 290 290 290 291 291
288 288 288 288 288 288 288 288 288 288 288 288 288 288 288 288 288 288 287 287 287 287 287 287 287 287 287 287 287 287 287 287 287 287 287 287 287 287 287 287 287 287 287 286 286 286 286 286 286 286 286 286 286 286 286 286 286 286 286 286 286 287 287 287 287 287 287 287 287 287 287 287 287 287 288 288 288 288 289 289 289 290 290 290 290 291
287 287 287 287 288 288 288 288 288 288 288 288 288 287 287 287 287 287 287 287 287 287 287 287 287 287 287 287 287 287 287 287 287 287 287 287 287 287 287 287 287 287 287 286 286 286 286 286 286 286 286 286 286 286 286 286 286 286 286 286 286 286 287 287 287 287 287 287 287 287 287 287 287 287 288 288 288 288 289 289 289 289 290 290 290 291
287 287 287 287 288 288 288 288 288 287 287 287 287 287 287 287 287 287 287 287 287 287 287 287 287 286 286 286 286 286 287 287 287 287 287 287 287 287 287 287 287 286 286 286 286 286 286 286 286 286 286 286 286 286 286 286 286 286 286 286 286 287 287 287 287 287 287 287 287 287 287 287 287 287 288 288 288 288 289 289 289 289 290 290 290 291
288 288 287 287 287 287 287 287 287 287 287 287 287 287 286 286 286 286 286 286 286 286 286 286 286 286 286 286 286 286 286 286 286 286 286 286 286 286 286 286 286 286 286 286 286 286 286 286 286 286 286 286 286 286 286 286 286 286 286 286 287 287 287 287 287 287 287 287 287 287 287 287 288 288 288 288 288 289 289 289 289 289 290 290 290 291
287 287 287 287 287 287 287 287 287 287 286 286 286 286 286 286 286 286 286 286 286 286 286 286 286 286 286 286 286 286 286 286 286 286 286 286 286 286 286 286 286 286 286 286 286 287 287 287 286 286 286 286 286 286 286 286 286 286 287 287 287 287 287 287 287 287 287 287 287 287 288 288 288 288 288 289 289 289 289 289 289 289 289 290 290 291
287 287 287 286 286 286 287 286 286 286 286 286 286 286 286 286 286 286 286 286 286 286 286 286 286 286 286 286 286 286 286 286 286 286 286 286 286 286 286 286 286 286 286 287 287 287 287 287 287 286 286 286 286 286 286 286 286 287 287 287 287 287 287 287 287 287 287 287 288 288 288 288 288 288 288 289 289 289 289 289 289 289 289 290 290 291
286 286 286 286 286 286 286 286 286 286 286 286 286 285 285 285 285 285 285 285 285 285 285 285 285 285 285 285 285 285 285 286 286 286 286 286 286 286 286 286 286 286 287 287 287 287 287 287 286 286 286 286 286 286 286 286 287 287 287 287 287 287 287 287 287 287 287 288 288 288 288 288 288 288 288 289 289 289 289 289 289 289 290 290 290 291
286 286 286 286 286 286 286 286 286 285 285 285 285 285 285 285 285 285 285 285 285 285 285 285 285 285 285 285 285 285 285 286 286 286 286 286 286 286 286 286 286 286 286 286 286 286 286 286 286 286 286 286 286 287 287 287 287 287 287 287 287 287 287 287 287 287 287 288 288 288 288 288 288 288 288 289 289 289 289 289 289 290 290 290 291 291
286 285 285 285 285 286 286 285 285 285 285 285 285 285 285 285 285 285 286 285 285 285 285 285 285 285 286 286 286 286 286 286 286 286 286 286 286 286 286 286 286 286 286 286 286 286 286 286 286 286 286 286 287 287 287 287 287 287 287 287 287 287 287 287 287 287 287 288 288 288 288 288 288 288 288 289 289 289 289 289 289 290 290 291 291 291
285 285 285 285 285 285 285 285 285 285 285 285 285 285 285 285 285 285 285 285 285 285 285 285 285 285 286 286 286 286 285 286 286 286 286 286 286 286 286 286 286 286 286 286 286 286 286 286 286 286 286 287 287 287 287 287 287 287 287 287 287 287 287 287 287 287 288 288 288 288 288 288 288 288 288 288 289 289 289 289 290 290 290 291 291 291
285 285 285 285 285 285 285 285 284 285 285 285 285 285 285 285 285 285 285 286 286 286 286 286 286 286 286 286 286 285 286 285 286 286 286 286 286 286 286 286 286 286 287 287 287 287 287 287 286 287 287 287 287 287 287 287 287 287 287 287 287 287 287 287 288 288 288 288 288 288 288 288 288 288 288 289 289 289 289 290 290 290 291 291 291 292
285 285 285 285 284 284 284 284 284 285 285 285 285 285 285 285 285 285 285 285 285 285 286 286 286 286 286 286 286 285 286 286 286 286 286 286 286 286 286 286 286 287 287 287 287 287 287 287 287 287 287 287 287 287 287 287 287 287 287 287 287 287 287 288 288 288 288 288 288 288 288 288 289 289 289 289 289 290 290 290 291 291 291 291 291 291
285 285 285 285 285 285 285 285 285 285 285 285 285 284 284 284 284 284 284 285 285 285 285 285 285 285 285 285 285 286 286 286 286 286 286 286 286 286 286 286 286 286 286 286 287 287 287 287 287 287 287 287 287 287 287 287 287 287 287 287 287 288 288 288 288 288 288 288 289 289 289 289 289 289 289 289 290 290 291 291 291 291 291 290 290 290
284 284 285 285 285 285 285 284 284 284 284 284 284 284 284 284 284 284 285 285 285 285 286 286 286 286 286 286 286 286 286 286 286 286 286 286 286 286 286 286 286 286 286 286 287 287 287 287 287 287 287 287 287 287 287 287 287 287 287 288 288 288 288 288 288 288 289 289 289 289 289 289 289 289 290 290 290 291 291 290 290 290 289 289 289 289
284 284 284 284 284 284 284 283 283 284 284 284 284 284 284 284 284 285 285 285 285 285 286 286 286 286 286 286 286 286 286 286 286 286 286 286 286 286 286 286 286 286 286 287 287 287 287 287 287 287 287 288 288 287 287 287 288 288 288 288 288 288 288 288 288 289 289 289 289 289 289 290 290 291 291 291 290 290 290 289 289 289 289 289 288 288
283 283 283 283 283 283 283 284 284 284 284 284 284 285 285 285 285 284 284 284 284 284 284 285 285 285 285 285 285 285 285 285 286 286 285 285 285 285 286 286 286 286 286 287 287 287 287 288 288 288 288 288 288 288 288 288 288 288 288 288 288 288 288 288 289 289 289 289 290 290 290 290 290 290 290 290 289 289 289 289 289 288 288 288 288 288
Wind_Speed
14 13 12 12 13 15 14 13 12 12 11 10 10 10 9 9 9 9 9 9 9 9 9 8 9 9 9 9 8 8 8 7 7 6 6 6 5 5 5 5 5 5 6 6 6 6 7 7 7 8 8 8 9 9 9 10 10 10 10 10 10 11 11 11 11 11 11 11 12 12 13 14 15 15 15 15 16 16 16 16 16 16 16 16 16 16
12 11 10 10 11 12 12 12 12 12 12 12 11 11 10 10 10 10 10 10 9 9 9 9 8 8 8 8 8 7 7 6 6 5 5 5 4 5 5 5 5 5 5 6 6 6 7 7 8 8 8 9 9 9 9 10 10 10 10 10 10 11 11 11 11 11 12 12 13 13 14 15 15 15 16 16 16 16 16 17 17 17 17 17 17 16
12 10 10 9 9 10 11 11 12 13 13 13 12 12 12 12 12 11 11 11 10 10 10 10 9 9 9 8 8 7 7 6 5 5 5 4 4 4 4 4 4 5 5 5 6 6 6 7 7 7 8 8 8 8 9 9 9 9 9 9 10 10 10 10 11 11 12 13 13 14 15 15 16 16 17 17 17 18 18 18 18 17 17 17 17 17
11 10 10 9 9 9 11 11 12 13 14 14 13 12 12 12 12 12 11 10 10 10 10 10 10 10 10 9 8 8 7 6 5 5 4 4 4 4 4 4 4 4 4 5 5 5 6 6 6 6 6 7 7 7 7 7 8 8 8 9 9 10 10 11 11 12 13 13 14 15 15 16 16 17 17 18 18 18 18 18 18 18 18 17 17 17
11 10 10 10 10 10 11 12 13 14 14 14 13 13 12 12 12 11 10 10 9 9 9 9 9 9 9 8 8 7 6 5 5 4 3 3 3 3 3 3 3 3 4 4 4 4 5 5 5 5 5 5 5 6 6 7 7 8 8 9 10 10 11 12 12 13 13 14 14 15 15 15 16 16 17 17 17 17 17 17 17 17 17 17 17 17
10 10 10 10 10 11 11 12 12 13 13 13 13 12 12 12 11 10 9 9 9 9 9 9 9 8 7 6 6 5 5 4 4 3 2 1 0 1 1 2 2 2 2 3 3 3 3 3 4 4 4 5 5 6 7 7 8 9 10 10 11 11 12 12 12 13 13 13 13 14 14 14 15 15 16 16 16 16 17 17 17 17 17 17 18 18
10 10 11 11 11 11 10 10 11 11 10 10 11 11 11 11 10 10 9 9 9 9 9 9 9 8 6 5 5 5 5 5 5 4 3 3 3 2 2 2 2 2 2 2 2 2 2 3 3 4 5 6 7 7 8 9 10 10 10 11 11 11 11 11 11 11 11 11 12 12 13 13 14 15 15 16 16 17 17 17 18 18 18 18 18 18
12 12 12 12 12 11 10 9 9 9 9 9 9 9 9 9 9 9 9 9 9 9 8 8 8 7 5 4 3 4 4 4 4 4 3 3 3 3 3 3 3 4 3 3 3 4 4 5 5 6 7 8 9 9 10 10 10 10 10 10 10 10 9 9 10 10 10 11 11 12 12 13 14 15 15 16 17 17 18 18 19 19 19 19 19 20
13 12 11 11 11 11 10 9 8 8 9 10 10 10 9 9 8 8 7 8 8 8 7 7 6 5 3 3 3 3 3 4 4 3 3 3 2 2 2 2 3 4 4 5 5 6 6 7 8 9 9 10 10 10 11 10 10 10 9 9 9 8 9 9 9 10 11 11 12 12 13 13 14 15 16 16 17 18 19 19 20 20 20 20 20 20
14 12 11 10 10 10 10 9 9 8 9 10 11 11 10 9 8 7 7 7 7 6 5 5 4 3 3 3 3 3 4 4 4 4 4 4 3 3 3 3 3 4 5 6 7 8 8 9 10 10 10 10 11 11 10 10 9 9 8 8 8 8 9 10 11 11 12 13 13 13 14 14 15 16 16 17 18 18 19 20 20 20 20 20 21 21
13 13 12 11 11 10 11 11 10 10 10 10 10 9 8 8 7 7 7 7 6 5 4 3 4 4 4 4 4 4 4 4 4 4 4 4 4 4 4 5 5 6 7 8 8 9 10 10 10 10 10 10 10 10 10 9 8 8 8 8 9 9 10 11 12 13 13 14 14 14 15 16 16 17 17 18 18 19 19 20 20 20 21 21 21 21
12 12 11 11 11 10 11 11 11 10 9 9 8 8 8 7 7 7 7 6 5 4 3 3 4 5 5 5 4 4 4 4 4 4 4 5 5 5 6 6 7 8 8 9 10 10 10 11 11 10 10 10 10 10 9 9 8 8 8 9 10 11 12 12 13 14 14 15 15 16 16 17 17 17 18 18 18 19 19 20 20 20 21 21 21 21
11 10 10 10 10 10 9 8 8 8 8 8 8 7 7 6 6 6 6 6 5 4 4 4 5 5 5 5 4 4 4 4 4 4 5 5 6 6 7 7 8 9 10 11 11 11 11 11 11 11 11 11 10 10 9 9 9 9 9 10 11 12 13 13 14 15 15 16 16 17 17 17 18 18 18 18 19 19 19 20 20 20 20 20 21 21
10 10 9 9 8 7 7 7 7 8 8 7 7 6 6 5 5 5 5 5 4 3 3 4 4 5 4 4 3 3 3 3 3 4 5 5 6 7 7 9 10 11 12 12 12 12 11 11 11 11 11 10 10 9 9 9 9 10 10 11 12 12 13 14 15 15 16 17 17 17 17 17 17 18 18 18 19 19 19 19 20 20 20 20 20 20
9 9 8 8 7 7 7 8 9 9 8 6 5 5 5 5 4 4 4 4 3 2 2 3 3 4 4 3 3 2 2 2 3 4 5 6 6 7 8 9 10 11 12 12 12 12 11 11 11 11 11 10 10 10 10 10 10 11 11 12 13 13 14 15 15 16 17 17 18 17 17 17 18 18 18 18 18 19 19 19 19 19 19 19 19 20
9 9 8 8 8 8 8 8 8 8 7 5 5 5 5 5 4 3 3 3 3 3 3 3 4 4 4 4 4 3 4 4 5 6 7 7 8 8 9 10 11 12 12 12 12 12 11 11 11 11 11 11 10 11 11 12 12 13 13 14 14 15 15 16 17 17 18 18 18 18 18 18 18 18 18 18 19 19 19 19 19 19 19 19 19 19
9 9 9 9 9 9 8 7 7 7 7 6 5 5 4 4 4 3 3 3 3 3 3 3 3 3 2 3 4 5 6 7 8 8 9 9 10 10 10 10 11 11 12 12 11 11 11 11 11 11 11 11 12 12 13 13 14 15 15 16 16 17 17 18 18 19 19 19 19 19 19 19 19 19 19 19 19 19 19 19 19 19 19 19 19 19
8 8 8 9 9 8 7 7 6 6 6 6 6 5 4 3 3 3 3 3 4 4 4 3 3 2 2 2 3 5 7 8 10 11 12 12 12 11 11 10 10 11 11 11 11 11 11 11 11 11 12 12 12 13 13 13 14 15 16 17 18 18 19 20 20 21 21 21 21 21 20 20 20 19 19 19 19 19 20 20 20 20 20 20 20 20
8 8 8 7 8 8 8 7 7 6 6 6 5 4 4 3 3 3 3 3 4 4 4 4 3 3 2 4 5 6 8 9 11 13 14 13 13 13 12 11 10 10 11 11 11 10 10 10 11 11 11 12 12 12 12 13 13 14 14 16 17 19 21 22 22 23 23 23 23 22 22 21 21 20 20 20 20 20 20 20 20 21 21 21 21 21
9 8 8 7 8 8 8 7 6 5 5 4 3 2 2 2 2 3 3 3 3 4 4 4 4 4 4 6 7 9 9 11 12 13 13 13 13 13 12 11 10 10 11 11 10 10 10 10 10 11 11 11 11 12 12 12 13 13 14 15 17 19 21 22 23 24 24 24 23 23 22 21 21 21 21 21 21 21 21 21 21 21 22 22 23 23
9 8 7 6 6 7 7 6 5 4 3 1 1 2 2 2 2 2 2 2 3 3 4 4 5 5 6 8 10 11 11 11 12 12 11 11 11 12 12 11 10 10 10 10 10 10 10 10 11 11 12 12 13 13 14 14 15 16 16 17 18 19 20 21 22 23 23 23 22 22 21 21 21 21 21 22 22 22 22 22 22 22 23 23 23 24
8 7 6 5 5 6 6 5 4 2 1 1 2 2 2 2 2 2 2 3 3 4 5 6 6 7 9 10 11 11 10 10 11 11 9 9 10 11 11 10 9 9 10 10 10 11 11 12 12 13 13 14 14 14 15 15 16 17 17 18 18 19 20 20 21 21 21 21 20 20 20 20 20 21 22 22 22 23 23 23 23 23 23 24 24 25
7 6 5 4 4 4 4 3 2 1 0 1 1 2 2 1 2 2 3 4 5 6 7 8 8 9 10 10 11 10 9 8 9 9 8 6 8 10 9 9 9 9 10 11 12 13 13 13 13 13 13 14 14 14 14 15 15 16 16 16 17 17 18 18 19 19 20 19 19 19 19 20 20 21 22 22 22 23 23 23 23 23 24 25 25 25
5 5 4 4 3 3 3 2 2 1 1 1 1 1 1 1 2 3 4 5 6 7 8 8 9 10 10 10 10 9 8 8 8 8 7 7 7 9 9 9 10 11 11 12 13 13 13 13 13 13 13 13 13 13 14 14 15 15 14 14 14 14 15 15 16 17 18 19 20 20 21 21 22 22 22 22 22 22 22 23 23 24 24 25 25 26
3 3 2 2 2 3 3 3 3 3 3 3 3 3 3 3 3 3 4 5 6 6 7 8 8 8 8 8 8 7 6 6 6 7 6 6 7 8 9 10 11 11 12 12 12 12 13 13 13 13 13 13 13 13 13 13 13 13 12 12 12 12 13 13 15 16 17 19 21 22 24 24 24 24 23 23 22 22 22 23 23 24 24 25 25 26
2 2 2 3 3 4 5 5 6 6 6 6 6 6 6 6 6 6 6 6 6 6 6 6 6 6 6 6 5 5 5 5 6 7 7 8 9 10 10 11 11 11 12 12 12 13 13 13 13 14 14 13 13 12 12 11 11 10 11 11 11 12 14 15 16 18 19 21 23 25 26 26 25 24 24 23 23 23 23 23 23 24 24 24 25 25
1 2 3 4 4 5 6 6 7 7 7 7 7 7 7 7 7 7 7 6 6 5 6 5 4 4 5 5 5 5 6 7 8 9 10 10 10 10 11 11 11 11 12 13 13 14 14 14 14 13 13 11 10 9 9 9 10 10 11 12 14 15 17 18 20 22 23 24 25 25 25 25 24 24 24 24 24 24 23 23 23 23 24 24 24 25
4 3 3 2 2 3 3 4 4 5 5 5 5 5 5 5 6 6 6 6 6 6 6 5 4 3 4 4 5 7 8 9 10 10 11 10 9 9 10 10 11 12 13 14 15 15 14 12 12 11 9 9 8 8 9 10 11 13 14 16 18 19 21 23 24 24 24 24 23 23 23 23 23 24 24 24 24 24 23 23 23 23 24 24 24 24
5 5 5 4 4 3 3 3 3 3 3 3 3 3 4 5 6 6 7 7 6 6 7 7 6 5 5 7 8 9 9 9 8 9 9 9 8 8 10 11 12 13 15 15 15 14 12 10 9 8 7 8 9 10 11 13 15 17 19 21 22 23 24 24 23 23 22 21 21 21 22 22 23 24 24 24 24 24 23 23 24 24 24 24 24 25
4 4 3 3 3 3 3 3 3 3 3 3 3 4 5 5 6 6 7 7 7 7 7 7 7 7 7 8 8 7 6 5 5 7 9 10 10 10 12 13 13 14 15 14 11 9 9 9 8 7 7 9 12 14 16 18 20 22 23 24 23 23 22 21 20 20 20 20 20 21 21 22 22 23 23 23 23 24 24 24 25 25 25 25 25 25
2 2 2 2 2 2 2 2 2 2 3 3 4 4 5 5 6 6 6 7 7 7 7 8 8 8 8 6 3 2 3 4 6 8 11 12 12 11 13 12 12 13 13 12 7 4 5 8 9 9 11 13 16 18 20 22 23 24 23 23 22 21 20 19 19 19 20 20 20 20 21 21 21 22 22 23 24 25 25 26 26 26 25 25 25 25
2 2 2 2 2 2 2 2 2 3 3 4 4 4 5 5 5 6 6 6 6 7 7 8 8 8 8 6 3 3 5 7 9 11 12 12 12 11 12 11 12 12 13 12 9 6 3 6 10 14 16 18 19 20 21 22 22 22 21 21 21 20 20 19 20 20 20 20 20 20 20 21 21 22 23 24 25 26 27 27 26 25 25 25 25 25
3 3 4 5 5 6 6 6 6 5 5 5 5 5 5 5 5 6 6 6 7 7 7 8 8 9 9 9 8 8 10 11 11 11 12 11 11 11 11 11 12 13 13 13 12 11 9 10 13 17 19 19 19 19 20 20 20 20 20 20 20 20 20 19 20 20 20 21 21 21 22 22 23 24 25 26 26 26 26 25 24 24 24 24 25 25
4 5 5 6 7 7 7 7 7 6 6 6 6 6 6 6 6 6 6 6 7 7 7 8 8 8 9 9 9 11 12 12 11 11 11 12 11 11 12 12 13 13 14 13 13 13 13 14 15 17 18 19 19 19 19 19 19 18 18 18 19 19 19 20 20 21 21 22 22 23 24 26 26 26 26 26 25 24 24 23 23 23 23 24 24 25
5 6 6 7 7 7 7 7 6 6 6 5 5 5 5 6 6 6 6 6 7 7 7 7 8 8 9 9 10 11 12 13 13 13 13 13 13 13 13 13 13 13 14 14 13 13 13 15 16 16 17 18 19 19 18 18 17 17 17 17 18 19 19 20 20 21 22 23 24 25 26 26 26 26 25 25 24 23 23 23 23 23 24 24 24 24
6 6 7 7 7 7 7 6 6 6 5 5 4 4 5 5 5 6 6 6 7 7 7 8 8 9 9 10 12 13 15 16 16 15 15 14 14 14 13 13 13 14 14 13 13 13 13 14 16 17 17 16 17 18 18 17 17 17 18 18 19 19 20 20 21 22 23 23 24 25 25 25 25 24 24 24 23 23 23 23 24 24 25 25 24 24
6 7 7 7 7 7 7 6 6 5 5 4 4 5 5 6 6 6 6 7 7 8 8 8 9 9 10 11 13 14 16 16 16 16 15 15 14 14 14 14 14 14 14 13 13 13 14 14 15 16 16 15 14 15 17 18 19 19 19 19 19 20 20 20 20 20 21 22 23 23 24 24 24 24 24 24 24 24 24 24 24 25 25 25 24 24
6 7 7 7 6 6 6 5 5 5 5 6 6 7 7 7 7 8 8 8 8 9 9 10 10 11 11 12 13 14 15 16 16 16 15 15 15 15 15 15 15 16 15 15 15 15 14 14 12 12 13 15 16 16 17 18 19 20 20 20 20 20 20 19 19 19 20 21 22 23 23 24 24 24 25 24 24 25 25 25 25 25 26 25 25 25
7 7 6 6 6 6 6 6 6 6 7 7 8 8 8 8 8 9 9 9 9 10 10 11 11 12 12 13 14 14 15 15 16 16 16 16 16 16 16 16 17 17 17 17 17 16 15 14 13 12 12 14 16 18 18 18 18 19 21 21 21 20 19 18 18 19 20 22 23 24 25 24 24 24 25 24 24 24 25 25 25 26 26 26 26 26
7 6 6 6 6 6 7 7 7 7 7 8 8 8 8 8 8 9 9 9 10 10 10 11 11 12 13 13 14 14 14 15 15 16 16 16 16 16 17 17 18 18 18 18 17 17 16 16 16 16 16 16 17 18 18 18 19 19 20 20 20 20 19 20 20 21 22 22 23 24 24 25 24 24 24 24 24 24 25 25 26 26 26 26 26 26
6 7 7 7 7 7 7 7 7 7 7 7 7 8 8 9 9 10 10 10 10 11 11 11 11 12 13 13 14 14 14 15 15 15 16 16 16 16 16 17 18 18 18 18 17 17 17 17 17 17 17 18 19 19 19 19 20 20 19 19 20 21 22 22 22 22 22 22 22 23 24 24 24 24 24 24 25 25 26 26 27 27 26 26 26 26
7 7 7 7 7 7 7 7 7 7 7 8 9 9 10 10 10 10 11 11 11 11 11 11 12 13 14 14 14 14 14 15 15 15 15 15 15 15 16 16 17 18 18 18 18 18 18 18 18 17 18 18 18 18 19 20 20 20 20 20 21 23 23 22 21 21 21 22 22 23 24 24 25 25 25 25 26 27 27 27 27 27 27 27 26 26
7 8 8 8 8 8 8 8 8 9 9 10 10 11 11 10 10 10 11 11 11 11 11 11 12 13 14 15 16 15 15 14 14 14 14 14 14 14 14 15 15 16 17 18 18 18 18 18 18 18 18 18 18 18 19 21 22 21 21 21 21 21 19 20 22 22 23 23 24 24 24 25 26 26 26 26 27 27 28 27 27 26 26 26 26 26
8 9 9 9 9 9 9 9 9 9 10 10 11 11 11 10 10 11 11 12 12 12 11 12 12 13 14 15 15 15 15 14 13 13 13 13 13 13 13 14 14 15 15 17 17 17 17 17 18 18 19 18 18 18 20 21 22 22 22 22 21 20 19 21 23 25 25 25 25 25 25 27 28 28 27 27 28 28 27 26 25 25 25 25 26 26
9 9 9 9 9 9 9 9 9 10 10 10 11 11 11 10 10 11 11 12 12 12 12 12 12 12 12 13 14 14 14 14 14 14 13 13 12 12 13 13 14 14 15 16 17 18 17 17 18 19 19 19 19 19 20 21 22 23 23 23 22 22 23 24 24 24 24 25 25 26 27 27 28 27 26 27 27 27 26 25 25 25 25 24 24 24
9 9 9 9 9 9 9 9 10 10 10 10 10 10 10 10 10 11 11 12 12 12 12 12 11 11 11 12 13 14 15 15 15 15 14 13 13 13 13 13 14 15 16 17 18 19 20 20 20 20 20 19 20 21 21 22 22 22 22 23 23 23 24 24 24 24 24 25 25 26 27 27 27 26 25 26 26 26 26 24 24 23 23 22 22 22
8 9 9 9 9 9 9 9 9 9 9 10 10 10 10 10 10 11 11 11 12 12 12 12 12 12 12 13 14 14 14 15 16 16 16 15 14 14 14 14 15 15 16 18 19 20 22 23 23 23 22 20 20 21 22 22 22 22 23 23 22 22 23 23 24 24 24 24 25 26 27 27 25 25 25 25 25 25 23 22 21 20 19 20 21 23
8 8 9 9 9 8 8 8 8 8 9 9 10 10 10 10 10 11 11 12 12 12 12 12 12 12 13 14 14 14 14 15 16 17 17 16 16 16 16 16 16 16 17 18 19 21 22 24 24 24 24 22 21 21 22 23 23 23 23 23 22 22 23 24 24 24 24 25 26 27 27 25 24 24 24 24 23 22 20 19 18 18 20 23 25 27
7 8 8 8 8 8 8 8 9 9 10 11 11 11 11 11 11 11 11 12 12 12 11 11 11 12 12 13 14 14 14 15 16 16 17 17 17 17 17 17 17 18 18 19 20 21 22 22 23 23 23 24 24 23 23 23 24 24 25 24 23 22 23 24 25 25 25 26 26 27 27 26 25 24 23 21 19 19 19 21 23 25 26 26 27 28
8 8 8 8 9 9 10 10 10 10 11 11 11 11 11 11 11 11 11 11 11 11 11 11 12 12 12 13 14 14 14 14 15 16 16 17 17 17 17 17 18 18 18 18 17 17 18 18 19 19 20 21 23 24 24 24 24 25 25 24 24 23 24 25 26 26 25 25 25 25 25 24 22 21 19 19 19 22 24 26 27 27 27 27 26 26
8 9 9 9 10 10 10 10 10 10 10 10 11 11 11 11 11 11 11 12 12 12 13 13 13 13 14 14 14 15 14 15 15 15 16 17 17 17 17 18 18 17 16 15 14 14 13 12 13 14 16 17 19 21 23 23 23 23 23 24 24 24 23 24 24 24 24 23 23 22 20 19 19 19 20 20 21 24 26 27 27 27 26 25 24 24
Wind_Direction
93 92 91 93 93 93 92 97 103 107 110 113 114 114 118 121 123 125 126 129 131 133 134 134 134 136 139 142 147 154 160 167 175 184 191 200 208 214 221 226 232 236 239 242 244 245 246 247 247 247 247 247 248 249 252 255 259 263 266 269 272 275 277 280 281 282 282 282 282 281 281 281 282 284 285 285 286 288 289 289 290 291 292 293 294 295
106 104 101 101 103 105 107 112 117 120 119 119 118 117 118 118 119 119 119 120 120 121 121 122 124 126 128 130 134 139 146 153 161 170 179 189 199 207 215 221 227 231 235 237 239 241 243 244 246 248 250 252 254 257 260 263 267 271 274 277 280 282 284 285 285 285 284 284 283 283 284 284 286 286 287 288 289 289 290 290 290 291 292 293 294 294
119 114 109 108 111 116 121 125 127 128 126 123 121 119 118 117 115 114 113 112 112 112 113 114 116 118 119 120 121 124 129 135 142 150 161 173 184 194 203 211 218 223 228 232 236 239 242 246 249 252 256 259 262 265 268 271 274 278 280 283 285 286 287 287 287 286 286 285 285 285 285 286 287 287 288 288 288 289 289 289 290 290 291 292 293 293
131 125 121 119 120 123 126 127 127 126 125 122 120 119 117 114 111 109 108 106 106 106 107 110 112 114 115 115 116 116 119 123 129 137 147 160 172 184 194 202 211 218 227 233 238 244 248 252 256 260 264 267 270 274 277 280 282 285 287 288 289 288 288 288 287 286 286 286 286 286 286 287 287 288 288 288 289 290 290 291 291 291 292 294 294 293
137 133 129 125 122 121 121 120 118 116 115 114 114 113 112 110 108 106 106 104 103 102 103 104 106 106 106 106 106 106 107 108 113 121 133 149 166 181 193 202 212 222 230 238 245 252 256 260 264 268 272 277 281 285 287 290 291 291 291 291 290 290 289 288 288 288 288 288 288 289 289 290 290 291 291 292 293 293 294 294 294 293 294 296 296 295
134 130 127 121 117 115 115 114 112 109 108 107 106 105 104 102 100 99 98 97 97 99 100 100 98 95 90 86 81 77 73 70 69 70 73 77 111 205 224 228 230 234 240 246 251 257 261 266 272 277 283 289 293 295 297 297 297 297 295 295 293 293 292 292 292 292 292 292 293 294 295 295 296 297 298 299 299 299 299 298 298 297 297 298 297 295
124 123 122 118 115 114 114 114 114 112 109 107 103 100 95 91 88 85 81 80 82 88 93 96 96 93 87 74 58 46 41 38 38 37 35 26 11 353 338 328 321 319 314 303 294 290 291 293 297 301 304 306 307 308 308 307 306 305 303 302 300 299 298 298 298 299 299 300 301 302 303 303 304 305 306 306 306 305 304 303 302 301 300 300 298 297
116 117 117 115 113 111 110 113 117 119 119 116 110 104 97 88 81 74 68 65 65 70 78 88 95 96 94 83 56 35 28 27 30 36 40 36 24 9 358 351 350 352 353 349 343 335 329 325 322 321 321 320 320 320 319 317 316 314 312 311 309 308 308 308 308 309 310 311 311 311 311 311 310 310 309 309 308 307 307 306 305 304 303 302 300 299
114 115 115 115 113 108 102 103 112 123 126 123 118 112 107 100 92 82 74 66 60 58 61 71 80 85 80 61 36 20 14 17 25 36 46 48 46 36 18 6 3 0 357 351 346 340 336 332 330 328 328 327 327 326 325 323 322 321 320 319 318 318 317 318 319 320 320 320 318 317 316 314 313 311 310 309 308 307 307 306 305 305 304 303 301 300
114 115 116 117 115 108 99 96 102 117 126 125 120 114 108 101 96 93 90 84 75 65 56 51 48 43 31 24 16 10 7 11 20 30 36 37 33 26 17 8 3 357 350 346 340 336 333 330 329 328 328 328 328 327 326 325 325 325 325 325 325 325 325 325 326 325 325 324 321 319 317 315 313 312 311 309 308 307 307 306 305 304 303 303 302 301
111 114 115 117 114 106 99 96 101 109 116 118 116 108 96 82 77 81 85 85 83 79 65 41 23 11 4 6 9 8 4 7 17 24 25 21 15 7 0 355 350 346 342 337 334 332 330 328 328 328 328 328 329 329 329 328 329 330 330 330 329 329 328 328 327 326 325 324 322 320 318 317 315 314 312 311 310 309 308 306 305 304 303 302 302 301
113 114 116 118 115 108 101 100 102 105 108 109 104 92 74 61 57 63 73 75 72 64 45 25 16 13 8 5 5 4 1 2 8 12 9 4 359 353 347 342 339 337 334 333 331 330 329 329 329 330 331 332 332 333 333 334 334 334 334 333 331 330 328 327 326 325 324 323 321 321 320 319 317 316 315 313 311 309 308 307 305 304 303 302 301 300
118 119 120 120 118 114 110 109 109 110 112 108 102 92 78 61 56 62 71 71 62 44 20 8 11 18 23 16 6 359 353 352 352 351 348 347 344 340 335 331 329 329 329 329 329 330 330 331 332 333 334 335 336 337 337 337 336 335 333 331 329 327 325 323 322 322 321 321 321 320 320 319 318 316 315 313 311 310 308 307 305 303 302 301 300 299
119 122 124 125 123 120 117 115 112 109 107 106 101 93 82 73 70 74 76 73 63 43 18 8 11 20 33 26 14 359 344 334 328 327 330 331 331 329 327 324 323 324 326 327 328 330 332 331 332 333 336 337 337 338 337 336 334 332 330 327 325 322 321 320 319 319 319 319 319 319 318 318 317 315 314 312 311 310 309 307 305 304 302 301 300 299
116 119 119 116 114 111 108 107 106 105 106 105 100 96 95 94 93 88 80 71 64 50 33 23 26 39 56 50 40 24 351 332 327 325 324 322 322 323 322 321 321 322 324 325 326 329 331 331 331 333 335 337 337 336 335 332 331 329 326 324 322 320 319 318 318 317 317 317 317 317 317 315 315 314 313 312 312 312 311 309 308 306 304 303 302 300
112 113 112 109 107 106 106 106 106 106 108 107 105 105 107 102 97 90 79 68 58 50 40 31 32 44 65 66 54 32 11 359 349 340 332 324 321 321 322 322 321 321 322 323 325 327 329 330 330 332 334 334 334 332 330 329 328 326 325 323 321 319 318 317 316 315 315 315 315 315 314 314 313 313 313 313 314 314 314 313 312 310 308 306 304 303
107 107 109 110 110 110 113 114 113 112 112 112 111 109 104 96 87 78 67 57 47 42 42 42 44 39 27 55 49 28 7 356 347 338 331 324 321 321 323 323 321 320 321 321 322 324 326 327 329 330 330 329 327 326 325 325 325 324 322 320 319 317 316 314 314 313 313 314 314 314 313 313 313 314 314 315 315 315 315 315 314 312 310 307 306 305
107 106 109 111 113 115 119 119 118 118 116 114 112 109 101 89 77 66 57 45 33 27 28 32 45 44 346 336 358 3 348 341 334 329 325 321 319 319 322 322 320 318 317 317 319 322 323 324 325 325 324 322 321 320 321 320 320 319 317 316 314 313 312 312 312 312 312 312 313 313 313 314 314 315 315 315 316 316 315 314 313 311 309 308 306 306
108 107 107 109 113 117 117 117 117 118 116 113 111 106 95 80 67 57 47 35 23 17 12 10 7 355 334 315 317 323 324 324 324 323 322 318 316 317 320 320 318 316 315 316 318 321 322 322 322 321 320 319 319 318 318 316 314 312 311 309 308 308 308 308 309 310 311 311 312 313 314 315 316 316 316 316 316 315 315 313 312 310 309 308 307 306
105 103 103 106 110 111 109 109 113 115 115 115 110 89 68 56 49 43 36 25 14 6 359 354 350 342 328 315 308 305 308 313 318 319 317 313 312 313 317 318 317 315 314 315 319 321 320 318 317 315 314 314 313 313 311 309 307 306 304 303 302 302 303 304 306 307 309 311 312 314 315 315 316 316 316 316 316 315 314 313 312 310 309 308 307 307
99 98 102 109 109 106 101 103 108 116 120 111 50 30 36 34 36 35 23 5 352 343 337 335 332 324 315 307 301 301 307 310 312 312 309 306 304 307 312 316 315 313 311 312 314 315 313 310 307 305 305 304 303 302 301 300 300 300 300 300 300 300 300 302 303 306 308 310 311 312 313 314 314 314 315 315 315 314 314 313 312 310 309 308 307 307
95 95 102 111 112 108 106 107 110 114 114 28 23 33 33 28 18 2 339 324 317 313 310 307 305 301 298 296 299 306 316 313 305 300 297 296 296 300 308 313 312 308 306 308 308 308 307 307 305 303 302 301 301 300 300 300 300 300 300 300 301 301 302 303 304 306 307 308 309 309 310 311 312 312 313 313 313 313 312 311 311 310 309 308 308 308
97 98 103 112 119 121 122 121 119 118 103 19 33 40 24 6 341 322 311 308 306 303 300 297 297 296 296 298 304 314 320 316 305 294 283 278 285 295 306 310 309 305 304 305 306 308 308 308 308 306 305 304 305 304 304 304 304 304 304 304 303 303 303 303 304 304 305 306 307 308 309 310 310 311 311 311 311 311 310 310 310 309 309 309 310 310
107 108 113 125 138 150 157 159 165 177 204 198 179 179 227 272 292 301 304 304 304 303 302 302 299 296 294 297 302 308 315 315 305 289 272 267 279 292 303 308 309 308 305 307 309 310 311 311 310 308 307 306 306 306 306 307 307 306 306 305 305 303 302 301 301 301 302 303 304 306 307 309 310 310 310 310 310 310 309 309 309 309 309 309 310 311
134 138 146 164 184 199 212 220 229 239 244 244 239 235 237 241 250 260 268 278 288 295 298 297 293 290 291 294 296 302 311 317 313 301 284 283 290 297 303 308 310 309 308 309 311 312 312 312 310 308 306 306 306 307 307 306 306 305 304 304 304 303 302 302 301 300 300 300 302 304 306 307 309 310 310 310 310 309 309 309 308 308 308 309 309 309
212 224 235 243 248 252 256 260 263 266 269 270 269 266 263 260 260 263 267 272 283 296 305 302 296 291 291 292 292 298 307 312 313 313 310 306 303 301 304 307 309 310 311 312 313 313 313 312 311 309 307 308 309 308 306 304 302 301 302 302 302 302 302 302 302 301 300 301 302 304 305 307 309 310 310 310 310 309 309 309 308 308 308 308 308 307
328 285 275 273 273 273 273 274 275 276 277 278 278 278 275 273 273 276 278 283 291 303 310 309 298 292 292 289 290 297 306 307 307 307 309 307 303 300 303 308 312 316 319 318 316 315 314 312 311 310 311 312 311 308 303 300 299 299 300 300 301 300 301 301 301 301 302 303 304 305 307 308 309 310 310 310 309 309 309 309 309 309 309 309 308 307
33 26 13 349 328 313 304 296 291 287 285 283 283 281 278 277 278 278 281 286 293 300 307 307 299 292 294 295 298 302 306 305 306 307 309 309 305 302 308 315 320 325 327 323 318 315 314 312 313 314 314 313 309 304 301 299 299 299 299 299 299 300 300 301 301 303 304 306 307 308 308 308 308 308 308 309 309 309 309 309 310 310 310 310 309 307
28 27 24 21 17 12 5 356 347 332 317 303 292 281 272 275 277 279 282 287 292 298 304 305 304 302 302 305 306 305 304 303 310 317 320 326 324 321 321 323 327 330 332 328 322 318 315 315 317 317 314 310 306 305 303 301 301 300 300 300 301 302 303 304 305 307 308 309 309 308 307 307 307 307 307 308 308 308 309 309 310 311 310 310 308 307
20 17 16 18 19 18 12 5 357 346 325 307 292 280 273 277 280 282 285 286 289 295 300 303 305 308 312 316 317 311 300 305 325 336 336 341 339 333 328 327 329 333 336 334 329 321 316 316 316 314 309 308 308 307 305 304 304 304 305 306 307 308 309 310 311 311 310 309 307 306 306 305 305 305 306 306 307 307 307 308 309 310 310 309 308 307
7 7 15 19 19 17 8 357 341 323 300 291 285 282 282 284 285 286 286 285 287 290 295 300 302 307 313 323 331 320 296 303 321 331 334 338 335 329 327 327 328 333 337 339 340 331 315 315 313 311 311 311 311 310 308 308 309 310 311 311 312 312 312 312 311 309 308 307 306 305 304 303 303 303 303 303 303 304 304 305 307 308 308 307 306 305
328 313 302 293 295 300 299 295 291 287 282 282 283 285 287 288 288 287 285 285 285 287 291 294 297 300 303 301 288 266 281 292 305 318 326 332 330 325 324 324 326 330 333 335 333 326 311 310 310 310 312 313 313 312 311 310 310 311 312 311 309 308 308 308 307 306 305 305 303 302 300 299 299 298 298 298 298 299 300 301 303 304 305 304 303 303
306 296 289 286 287 289 290 288 286 284 282 281 282 284 286 287 287 285 285 285 285 286 288 291 294 295 296 293 285 279 280 287 297 309 319 326 327 325 322 322 324 326 327 327 323 315 305 302 306 309 310 310 311 311 309 308 308 308 308 306 305 304 305 305 305 304 303 301 300 298 296 295 294 294 295 295 296 297 297 299 300 301 301 300 300 300
308 305 303 300 298 298 298 298 297 297 295 293 292 291 290 289 287 286 285 286 286 287 288 289 292 294 295 294 289 286 284 286 292 301 311 320 323 323 320 320 321 322 324 322 319 314 306 303 304 306 307 307 307 306 305 305 305 305 305 304 302 302 303 303 303 301 300 298 297 295 294 293 294 294 295 295 295 296 296 297 297 297 296 296 296 297
313 313 312 310 308 307 308 311 313 313 311 309 305 301 295 291 289 288 289 289 289 289 288 288 289 291 293 294 293 290 289 290 294 299 305 312 315 316 315 314 315 318 319 317 315 312 307 303 302 302 302 303 303 303 302 302 303 303 302 300 299 299 299 299 298 298 297 296 295 295 294 295 295 296 296 296 295 295 294 294 293 293 292 292 293 293
310 309 307 307 307 307 308 310 312 311 308 304 299 295 292 291 291 291 291 292 291 291 289 287 286 286 288 289 290 291 292 294 298 301 304 305 307 307 306 304 306 308 309 308 307 304 301 300 298 297 297 298 299 300 301 303 303 302 300 298 296 296 295 295 295 295 296 296 295 295 296 296 296 296 295 295 294 293 292 291 291 291 292 292 292 291
301 301 300 303 305 306 304 304 303 302 299 295 291 290 291 292 293 294 293 293 292 291 290 288 286 285 285 286 287 288 291 294 297 300 300 300 300 298 296 295 296 297 298 298 298 297 296 295 295 294 293 292 294 297 301 304 304 303 300 299 298 298 298 298 297 298 297 297 296 296 296 296 296 295 295 294 294 294 293 293 293 294 295 294 294 292
292 293 296 300 301 300 298 299 299 298 297 296 296 296 296 296 296 296 296 295 294 292 291 289 289 287 286 286 286 287 289 291 293 295 295 295 293 291 290 289 289 289 288 287 287 287 287 288 290 292 292 291 291 293 298 302 303 302 302 302 302 302 302 302 302 302 301 300 298 297 296 296 296 296 296 296 297 296 296 296 296 297 297 297 296 294
282 285 288 289 289 289 293 296 298 297 296 296 296 296 297 297 297 297 297 296 295 294 293 293 292 290 289 287 287 287 288 289 290 291 291 290 289 287 285 284 283 283 282 281 279 277 277 278 281 286 290 292 293 295 297 299 299 301 303 305 306 305 304 305 305 304 303 301 300 299 298 298 299 298 298 298 297 296 295 295 296 296 297 297 296 294
277 278 278 276 277 282 288 291 293 293 293 293 292 292 293 294 295 295 295 295 295 295 294 294 293 292 290 289 288 287 287 288 288 288 288 287 285 283 281 279 278 277 278 276 274 271 269 271 275 280 284 288 291 294 296 297 298 300 303 305 306 306 306 307 306 304 303 302 301 300 300 300 300 299 297 296 295 294 293 293 293 294 295 295 294 293
273 272 272 272 274 278 280 281 282 283 284 285 286 288 290 293 295 294 292 292 292 292 293 293 292 291 289 287 286 286 286 286 286 285 284 283 282 281 279 278 276 275 274 272 270 269 269 271 274 277 280 284 287 290 292 294 296 298 300 300 300 301 304 304 304 304 303 302 301 301 300 299 298 296 295 294 293 292 292 292 292 292 293 292 291 290
270 272 271 272 273 274 274 274 274 275 277 280 283 286 289 291 293 293 292 291 290 290 291 291 290 290 289 288 287 285 284 283 282 282 281 280 280 280 279 279 279 278 275 272 270 270 271 272 273 275 278 282 286 289 291 292 294 295 296 296 298 301 303 302 302 303 303 301 300 299 297 296 294 293 292 292 292 293 293 292 291 290 289 289 288 286
270 271 271 273 273 273 272 273 275 277 280 283 284 284 286 286 286 286 287 287 287 288 288 289 289 289 288 287 287 286 285 282 281 280 281 281 281 281 281 282 282 282 279 274 270 270 273 273 273 274 277 280 282 285 288 291 293 293 293 294 297 299 300 300 301 302 301 299 298 296 294 293 292 291 292 291 291 291 291 290 288 287 286 285 284 282
273 271 272 273 274 275 274 276 278 280 281 282 282 283 283 283 283 282 283 283 283 284 285 285 286 285 283 282 284 285 286 285 284 283 283 284 285 286 286 287 286 286 284 277 272 271 276 277 277 279 281 281 280 281 284 288 290 291 291 292 292 290 289 292 296 298 297 296 295 293 292 291 291 291 291 290 289 288 288 286 285 285 284 282 280 278
272 271 272 274 275 276 277 277 278 279 280 280 281 282 283 284 283 281 280 279 279 280 282 283 283 281 279 279 283 286 289 289 289 289 289 289 289 290 290 290 290 289 287 283 279 276 275 276 279 282 283 282 279 279 281 284 286 287 288 289 289 288 286 287 289 290 291 291 291 290 290 290 290 290 289 287 286 285 285 284 284 284 282 280 278 276
270 271 273 274 275 276 277 279 280 280 281 281 283 284 286 287 285 283 281 280 280 281 282 283 281 278 278 282 286 290 291 293 294 294 295 295 295 294 293 292 291 290 289 287 285 282 279 276 277 280 281 281 279 278 278 280 282 283 284 286 288 287 287 286 286 286 287 287 287 287 289 290 289 288 285 284 284 285 285 283 282 281 280 280 280 280
272 273 274 276 276 277 279 280 282 282 284 285 286 287 288 289 289 288 286 285 284 284 284 283 280 278 279 283 287 289 291 294 296 297 298 299 299 298 296 295 294 292 291 290 288 286 283 280 278 276 276 276 277 278 278 279 279 280 281 283 284 285 285 285 285 285 285 284 284 285 288 288 287 285 283 284 284 284 284 283 281 282 285 288 289 289
275 276 277 278 279 280 282 285 287 289 290 290 290 290 289 289 289 287 286 286 284 283 282 280 279 279 280 281 283 286 289 292 295 297 298 299 301 301 301 300 299 297 295 293 290 286 283 281 278 275 272 269 271 274 276 277 277 277 278 280 281 281 282 283 284 285 285 283 283 284 286 285 283 282 283 284 284 284 285 287 289 292 293 294 293 291
279 281 282 285 287 288 289 291 293 293 292 292 292 292 291 291 290 288 287 287 285 284 283 283 284 284 284 284 286 288 289 291 293 295 297 299 301 303 303 303 302 301 298 295 291 287 283 280 277 273 270 266 265 267 269 272 274 275 277 277 277 277 279 281 283 284 284 284 284 285 285 283 281 281 283 285 287 289 292 294 295 295 295 294 292 290
280 282 284 287 288 289 289 290 291 290 290 290 290 291 293 294 294 293 293 293 294 294 294 294 292 291 290 290 291 291 292 292 293 294 295 297 299 301 302 302 302 301 298 295 292 288 285 282 278 274 270 266 262 261 263 267 270 272 274 274 274 274 275 277 280 282 283 284 284 285 285 284 284 286 289 292 296 297 298 297 296 296 296 295 293 291
281 282 283 284 285 286 286 287 287 288 289 289 291 293 296 297 297 297 297 296 295 294 293 291 289 287 286 287 288 289 289 290 290 291 292 294 296 297 297 296 296 295 294 292 290 288 288 287 284 280 277 270 265 263 262 262 265 269 272 272 273 274 273 275 278 281 283 284 285 285 286 289 293 296 299 299 299 298 298 297 296 296 296 296 295 292